sat.trackr.live / text

‹ back to catalog

STARLINK-37209

NORAD 69187 · 2026-114F

PAYLOAD ACTIVE UNKNOWN

§ Identity

Operator
Country
US
Launch date
2026-05-25
Launch site
AFETR
Launch vehicle
Mass (kg)
RCS (m²)

Purposes: comms

External: N2YO · Heavens-Above · Gunter

§ Orbital elements

Epoch: 2026-09-19T23:35:10.120992Z

Period
93.85 min
Inclination
53.1580°
Eccentricity
0.0000755
Mean motion
15.34397559 rev/d
Perigee alt
462.2 km
Apogee alt
463.2 km
Semi-major
6,840.8 km
B*
2.9759e-4
RAAN
116.3742°
Arg perigee
152.7623°
Mean anomaly
207.3419°
Rev number
1,936

§ Raw data

STARLINK-372091 69187U 26114F   26262.98275603  .00009691  00000+0  29759-3 0  99922 69187  53.1580 116.3742 0000755 152.7623 207.3419 15.34397559 19368

JSON: /api/v1/satellites/69187 · /tle

For live sub-satellite position, see the globe view (requires WebGL).

§ Visibility from observer

Set your observer location to see the next 7 days of passes ≥ 10°. The values pass through the URL so the page stays shareable.

No JS? Fill the form by hand. The geolocation button needs JavaScript.